• Join FlightAware (Why Join?)
  • Login
  • US Flag GB Flag 
12:31 EST


 

Airport Tracker/Info


-or-


 

Live Flight TrackerFlight Track Log ✈ N53NW ✈ 15-May-2013 ✈ KPWK - KTZR

Flight Track Log - Related Links

Times and Time Zones

All times are in EDT time to prevent confusion due to time zone crossing. See the N53NW flight status page for this flight to view local times or setup timezone preferences in your user account.

Time Position Orientation Groundspeed Altitude Reporting Facility
EDT Latitude Longitude Course Direction KTS MPH feet Rate Location/Type
19:16 42.1500 -87.8000 45° Northeast 254 292 2,500  Level Chicago TRACON
19:16 42.1686 -87.7567 60° Northeast 261 300 3,600 1,140 Climbing Chicago Center
19:17 42.1722 -87.6492 87° East 278 320 4,400 1,260 Climbing Chicago Center
19:18 42.1317 -87.5750 126° Southeast 290 334 6,300 2,580 Climbing Chicago Center
19:19 42.0833 -87.5667 173° South 296 341 8,400 3,120 Climbing Chicago TRACON
19:20 41.9808 -87.5153 160° South 307 353 12,800 2,580 Climbing Chicago Center
19:21 41.9592 -87.3894 103° East 346 398 15,300 2,940 Climbing Chicago Center
19:22 41.9444 -87.2414 98° East 335 386 18,900 2,820 Climbing Chicago Center
19:23 41.9308 -87.1150 98° East 343 395 21,100 2,100 Climbing Chicago Center
19:24 41.9158 -86.9792 98° East 364 419 23,300 1,860 Climbing Chicago Center
19:25 41.9014 -86.8411 98° East 375 432 25,000 780 Climbing Chicago Center
19:26 41.8844 -86.6908 99° East 417 480 25,000  Level Chicago Center
19:28 41.8631 -86.5014 99° East 428 493 25,000  Level Chicago Center
19:29 41.8414 -86.3458 101° East 428 493 25,000  Level Chicago Center
19:30 41.8053 -86.1944 108° East 428 493 25,000  Level Chicago Center
19:31 41.7697 -86.0436 107° East 427 491 25,000  Level Chicago Center
19:32 41.7142 -85.9086 119° Southeast 429 494 25,000  Level Chicago Center
19:33 41.6328 -85.7989 135° Southeast 422 486 25,000  Level Chicago Center
19:34 41.5350 -85.6683 135° Southeast 419 482 25,000 -600 Level Chicago Center
19:35 41.4533 -85.5617 136° Southeast 419 482 23,800 -1,020 Descending Chicago Center
19:36 41.3750 -85.4567 135° Southeast 408 470 23,000 -420 Descending Chicago Center
19:37 41.2947 -85.3511 135° Southeast 408 470 23,000  Level Chicago Center
19:38 41.1994 -85.2261 135° Southeast 406 467 23,000  Level Chicago Center
19:39 41.1194 -85.1219 136° Southeast 405 466 23,000  Level Chicago Center
19:40 41.0414 -85.0197 135° Southeast 401 461 23,000  Level Chicago Center
19:41 40.9619 -84.9186 136° Southeast 398 458 23,000  Level Chicago Center
19:42 40.8839 -84.8175 136° Southeast 394 453 23,000  Level Chicago Center
19:43 40.8197 -84.6675 119° Southeast 402 463 23,000 -180 Level Chicago Center
19:44 40.7769 -84.5308 112° Southeast 403 464 22,700 -900 Descending Chicago Center
19:45 40.7347 -84.3939 112° Southeast 404 465 21,200 -1,440 Descending Chicago Center
19:46 40.6928 -84.2611 113° Southeast 398 458 19,800 -1,440 Descending Chicago Center
19:47 40.6439 -84.1094 113° Southeast 389 448 18,200 -1,500 Descending Indianapolis Center
19:48 40.6028 -83.9781 112° Southeast 386 444 16,600 -1,440 Descending Indianapolis Center
19:49 40.5636 -83.8511 112° Southeast 375 432 15,300 -1,260 Descending Indianapolis Center
19:50 40.5497 -83.8131 116° Southeast 364 419 15,000 -1,440 Descending Indianapolis Center
19:50 40.5328 -83.7586 112° Southeast 357 411 14,300 -1,380 Descending Indianapolis Center
19:50 40.5247 -83.7303 110° East 362 417 14,000 -1,200 Descending Indianapolis Center
19:51 40.4936 -83.6383 114° Southeast 350 403 13,100 -1,200 Descending Indianapolis Center
19:51 40.4867 -83.6133 110° East 349 402 12,800 -1,200 Descending Indianapolis Center
19:52 40.4578 -83.5269 114° Southeast 339 390 11,900 -1,200 Descending Indianapolis Center
19:52 40.4492 -83.4997 113° Southeast 338 389 11,600 -1,500 Descending Indianapolis Center
19:53 40.4217 -83.4156 113° Southeast 329 379 10,400 -1,800 Descending Indianapolis Center
19:53 40.4133 -83.3869 111° Southeast 334 384 9,800 -2,100 Descending Indianapolis Center
19:54 40.3625 -83.3372 143° Southeast 303 349 8,300 -2,400 Descending Indianapolis Center
19:54 40.3339 -83.3103 144° Southeast 309 356 7,400 -2,220 Descending Indianapolis Center
19:55 40.2933 -83.2769 148° Southeast 272 313 6,100 -1,860 Descending Indianapolis Center
19:55 40.2678 -83.2597 153° Southeast 286 329 5,500 -1,500 Descending Indianapolis Center
19:56 40.2242 -83.2494 170° South 247 284 4,600 -1,500 Descending Indianapolis Center
19:57 40.1956 -83.2403 166° South 269 310 4,000 -1,500 Descending Indianapolis Center
19:57 40.1503 -83.2272 168° South 274 315 3,100 -1,020 Descending Indianapolis Center
19:58 40.1217 -83.2178 166° South 268 308 3,000 -120 Descending Indianapolis Center
19:59 40.0597 -83.1967 165° South 267 307 3,000  Level Indianapolis Center